EHI
0 0 0 0 0 0 0 0 0 0 0 0 0 0 0 0 0 1 2 2 0 0 0 1 2 3 4 2 1 2 3 3 3 2 1 0 0 0 0 0 0 0 0
0 0 0 0 0 0 0 0 0 0 0 0 0 1 1 0 0 1 3 2 0 0 0 1 2 2 2 1 0 1 2 2 3 3 1 0 0 0 0 0 0 0 0
0 0 0 0 0 0 0 0 0 0 0 0 1 2 2 1 0 1 2 1 1 1 1 1 1 1 1 0 0 1 1 1 2 3 1 0 0 0 0 0 0 0 0
0 0 0 0 0 0 1 1 1 0 0 0 1 2 3 1 1 1 1 2 3 3 2 2 2 2 1 0 0 0 1 1 1 2 1 0 0 0 0 0 0 0 0
0 0 0 0 0 0 1 2 1 0 0 0 1 2 2 2 2 2 2 3 3 3 2 2 3 2 1 0 0 1 1 1 1 1 1 0 0 0 0 0 0 0 0
0 0 0 0 0 0 1 1 1 1 1 1 2 2 1 1 1 1 1 2 1 1 1 2 2 1 0 0 0 1 2 2 1 0 0 0 0 0 0 0 0 0 0
0 0 0 0 0 0 0 0 0 1 2 2 1 1 1 1 1 0 0 0 0 0 1 1 1 0 0 0 0 0 1 1 1 0 0 0 0 0 0 0 0 0 0
0 0 0 0 0 0 0 0 0 1 1 2 1 0 0 0 1 1 0 0 0 0 0 0 0 0 0 1 1 1 0 0 0 0 0 0 0 0 0 0 0 0 0
0 0 0 0 0 0 0 0 0 0 1 2 1 0 0 0 0 0 0 0 0 0 0 0 0 0 0 1 2 1 0 0 0 0 0 0 0 0 0 0 0 0 0
0 0 0 0 0 0 0 0 0 0 1 1 1 0 0 0 0 0 0 0 0 0 0 1 1 0 0 1 1 1 0 0 0 0 0 0 0 0 0 0 0 0 0
0 0 0 0 0 0 0 0 0 0 1 1 0 0 0 0 0 0 0 0 0 0 1 1 1 0 0 0 0 0 0 0 0 0 0 0 0 0 0 0 0 0 0
0 0 0 0 0 0 0 0 0 0 1 1 0 0 0 0 0 0 0 0 0 0 1 1 1 0 0 0 0 0 0 0 0 0 0 0 0 0 0 0 0 0 0
0 0 0 0 0 0 0 0 0 0 0 0 0 0 0 0 0 0 0 0 0 0 0 0 0 0 0 0 0 0 0 0 0 0 0 0 0 0 0 0 0 0 0
0 0 0 0 0 0 0 0 0 0 0 0 0 0 0 0 0 0 0 0 0 0 0 0 0 0 0 0 0 0 0 0 0 0 0 0 1 1 0 0 0 0 0
0 0 0 0 0 0 0 0 0 0 0 0 0 0 0 0 0 0 0 0 0 0 0 0 0 0 0 0 0 0 0 0 0 0 0 1 1 0 0 0 0 0 0
0 0 0 0 0 0 0 0 0 0 0 0 0 0 0 0 0 0 0 0 0 0 0 0 0 0 0 0 0 0 0 0 0 0 0 0 0 0 0 0 0 1 1
0 0 0 0 0 0 0 0 0 0 0 0 0 0 0 0 0 0 0 0 0 0 0 0 0 0 0 0 0 0 0 0 0 0 0 0 0 0 0 0 1 2 2
0 0 0 0 0 0 0 0 0 0 0 0 0 0 0 0 0 0 0 0 0 0 0 0 0 0 0 0 0 0 0 0 0 0 0 0 0 0 0 0 1 2 3
0 0 0 0 0 0 0 0 0 0 0 0 0 0 0 0 0 0 0 0 0 0 0 0 0 0 0 0 0 0 0 0 0 0 0 0 0 0 0 0 1 1 2
0 0 0 0 0 0 0 0 0 0 0 0 0 0 0 0 0 0 0 0 0 0 0 0 0 0 0 0 0 0 0 0 0 0 0 0 0 0 0 0 0 0 1
0 0 0 0 1 0 0 0 0 0 0 0 0 0 0 0 0 0 0 0 0 0 0 0 0 0 0 0 0 0 0 0 0 0 0 0 0 0 0 0 0 0 0
0 0 0 0 0 0 0 0 0 0 0 0 0 0 0 0 0 0 0 0 0 0 0 0 0 0 0 0 0 0 0 0 0 0 0 0 0 0 0 0 0 0 0
0 0 0 0 0 0 0 0 0 0 0 0 0 0 0 0 0 0 0 0 0 0 0 0 0 0 0 0 0 0 0 0 0 0 0 0 0 0 0 0 0 0 0
0 0 0 0 0 0 0 0 0 0 0 0 0 0 0 0 0 0 0 0 0 0 0 0 0 0 0 0 0 0 0 0 0 0 0 0 0 0 0 0 0 0 0
0 0 0 0 0 0 0 0 0 0 0 0 0 0 0 0 0 0 0 0 0 0 0 0 0 0 0 0 0 0 0 0 0 0 0 0 0 0 0 0 0 0 0
0 0 0 0 0 0 0 0 0 0 0 0 0 0 0 0 0 0 0 0 0 0 0 0 0 0 0 0 0 0 0 0 0 0 0 0 0 0 0 0 0 0 0
Wind_Speed
3 4 4 5 6 7 8 8 8 9 9 9 10 10 9 9 8 8 9 9 9 9 9 9 9 9 9 9 9 9 9 8 8 8 8 7 6 7 7 7 6 4 7
2 3 3 5 5 7 8 8 8 9 9 9 9 9 9 9 8 9 9 9 9 10 10 10 10 9 10 10 10 10 10 9 8 8 8 7 7 7 6 7 6 5 7
1 2 2 4 6 7 7 8 8 9 9 9 9 9 9 9 9 10 10 10 10 10 10 10 10 10 10 10 10 10 10 10 9 9 7 4 4 6 6 7 7 7 7
2 2 2 5 6 7 8 9 9 9 10 10 10 10 10 10 10 10 10 10 10 10 10 10 10 10 10 10 10 10 10 10 9 8 4 3 3 6 6 7 7 7 7
3 3 2 6 7 8 8 9 9 9 10 11 11 11 10 10 10 10 10 10 10 10 10 10 10 10 10 9 10 10 10 10 9 6 4 3 3 6 6 6 6 7 7
3 3 3 6 7 8 8 9 10 10 10 11 11 11 11 11 11 10 10 10 10 10 10 9 9 9 10 9 9 10 9 9 7 4 4 3 3 6 6 6 6 6 7
3 3 3 6 7 8 8 9 9 10 10 11 10 11 11 11 11 10 10 11 10 10 10 10 9 9 10 10 9 9 9 8 5 4 3 2 3 6 6 5 5 5 6
3 3 3 5 6 7 8 8 9 9 10 10 10 10 10 10 10 10 10 10 10 10 10 10 10 10 10 9 9 9 9 8 6 4 3 3 5 5 5 5 5 5 6
3 3 3 4 4 6 7 8 9 9 9 10 10 10 10 11 11 10 10 10 10 10 11 10 10 10 10 9 9 9 9 9 5 3 3 2 5 6 6 6 5 5 6
3 3 3 4 4 4 4 6 8 8 9 10 10 10 11 11 10 10 9 10 10 11 11 11 11 10 10 10 10 10 9 8 4 3 2 3 6 6 6 6 5 5 6
3 3 3 3 4 4 3 5 6 7 8 8 8 10 10 6 6 6 9 11 11 12 12 12 11 11 11 10 10 10 8 4 4 3 2 5 6 6 6 6 6 6 7
1 1 2 2 2 3 3 4 4 4 5 5 5 6 5 5 6 7 10 12 12 12 12 13 13 11 8 5 7 8 4 5 4 3 3 7 7 6 6 7 7 7 7
0 1 1 1 2 2 2 3 2 2 3 4 5 5 5 5 5 6 4 6 7 8 6 8 8 5 5 5 4 4 4 4 3 3 4 8 8 8 8 8 8 7 7
1 0 1 1 2 2 2 2 2 2 2 3 3 4 4 3 4 4 4 4 4 3 4 5 4 5 6 6 5 5 5 4 3 3 4 9 9 9 9 9 9 8 8
1 1 1 2 2 2 2 2 2 2 2 2 3 3 4 3 4 4 3 4 4 3 4 4 5 5 6 6 5 6 6 6 5 5 3 8 9 9 9 9 9 8 8
1 1 1 2 2 2 2 2 2 2 2 2 3 3 4 3 3 3 4 4 4 3 3 4 4 5 4 4 6 5 5 5 5 5 5 6 10 10 9 8 8 8 8
2 1 2 2 2 2 2 2 2 2 2 2 2 3 3 3 3 3 3 3 3 3 4 4 5 4 5 5 5 5 5 5 5 5 5 5 5 8 9 9 8 7 8
2 2 1 2 3 2 2 2 2 2 2 2 2 2 3 3 3 3 3 3 3 3 3 4 4 4 4 4 4 4 4 4 6 5 5 5 5 5 7 10 10 9 8
3 3 2 2 3 3 2 2 2 2 2 2 2 2 2 3 3 3 3 2 3 3 3 3 4 3 3 4 4 4 4 4 5 6 6 6 5 6 5 8 10 11 9
2 2 3 3 3 3 3 2 3 3 2 2 2 2 2 2 3 3 3 3 3 3 3 3 4 4 3 3 4 5 4 4 4 5 5 5 5 6 6 6 5 7 10
2 3 2 3 3 3 2 2 2 1 1 1 1 2 2 2 3 3 3 3 3 3 3 3 3 4 3 2 3 3 4 4 5 4 4 4 6 6 6 6 5 4 4
3 3 3 3 3 3 3 2 2 2 1 1 1 2 2 2 2 2 2 2 2 3 3 3 3 2 2 2 2 2 3 4 4 5 4 4 5 5 6 6 6 5 4
4 4 4 4 3 3 3 3 3 3 2 2 2 2 2 2 2 2 2 2 2 2 2 2 2 3 1 2 2 2 2 0 2 3 4 4 5 4 4 4 5 5 5
5 4 4 4 4 4 4 4 5 3 2 1 1 0 1 1 1 2 2 2 2 2 2 1 2 2 2 1 1 2 2 2 2 1 3 3 4 4 4 4 4 4 5
3 4 4 4 3 3 4 5 5 3 2 1 1 1 1 1 1 2 2 2 2 1 2 1 2 2 2 2 1 1 2 2 2 2 1 3 3 2 2 3 3 3 4
2 3 3 4 3 3 4 4 5 4 3 3 2 1 1 1 1 1 1 1 1 1 1 1 1 2 1 2 1 1 2 2 1 2 1 1 1 2 2 2 2 2 3
Wind_Direction
311 311 342 26 39 46 50 55 57 59 64 65 67 70 73 75 81 88 90 91 92 92 90 89 93 94 96 100 100 98 99 101 107 108 108 108 111 112 112 110 107 99 110
291 320 9 34 44 51 53 57 59 59 63 65 66 69 72 77 85 91 92 92 93 93 92 91 92 94 96 95 95 95 96 97 103 104 101 102 105 106 109 108 109 107 109
17 353 15 48 53 57 59 63 64 63 63 63 66 67 67 71 83 88 93 93 92 91 91 90 91 94 96 95 94 94 93 91 94 95 92 82 91 100 103 108 109 109 109
53 21 35 63 62 64 65 65 69 68 64 64 66 67 68 72 79 85 90 91 89 88 88 88 90 92 94 95 93 91 90 89 87 85 76 68 79 95 97 101 107 109 106
51 31 43 74 72 71 70 69 72 70 67 65 64 65 68 71 76 82 85 86 87 86 84 84 87 88 90 91 90 89 88 86 83 76 68 65 69 90 92 95 102 105 104
55 36 42 72 73 73 72 71 71 69 68 67 64 64 65 67 70 74 78 81 85 86 84 82 84 86 88 88 86 85 85 84 76 66 60 65 75 87 87 90 95 96 101
64 44 42 68 70 71 70 71 71 70 70 69 66 66 66 67 70 73 75 77 79 83 84 81 82 84 87 88 85 83 83 84 75 66 59 68 86 89 86 90 95 95 100
83 57 50 66 73 71 70 68 69 69 69 69 66 66 66 65 68 73 76 78 79 80 82 82 83 85 86 86 85 82 78 76 71 67 63 67 88 86 82 86 90 93 97
70 57 40 40 51 65 70 69 67 65 66 65 63 62 61 61 62 67 73 77 80 80 81 80 79 79 81 82 81 80 77 73 59 56 69 70 84 80 74 76 80 87 95
54 48 41 38 39 39 47 68 71 70 67 64 62 59 54 52 54 59 66 74 77 76 75 74 73 73 75 78 76 77 74 66 52 47 44 72 81 79 75 75 79 87 89
48 37 43 46 43 40 39 55 58 63 60 57 53 51 44 30 31 50 64 72 71 70 70 71 70 69 69 71 74 74 66 52 47 43 43 70 77 79 76 74 80 91 91
47 30 51 59 56 43 43 46 37 41 42 42 39 37 33 30 38 54 56 63 65 66 67 68 67 66 63 58 63 64 56 50 44 36 52 62 67 72 74 77 80 90 91
177 56 59 70 62 57 48 50 39 36 39 39 39 42 40 36 37 44 47 48 50 55 55 57 59 54 57 58 57 56 52 48 38 29 46 61 63 67 70 76 79 88 87
118 73 65 85 76 58 59 58 52 47 42 39 37 41 47 44 42 46 49 46 46 47 53 54 58 55 56 55 58 58 50 46 35 25 45 57 61 66 71 74 73 84 86
148 166 118 96 89 76 70 64 64 54 53 49 44 44 56 58 52 51 51 49 48 49 57 59 59 57 55 54 55 55 49 43 37 31 36 51 55 58 64 70 69 76 81
183 186 142 116 112 98 89 82 71 59 61 57 49 49 62 65 64 62 58 52 47 49 56 65 67 65 58 56 53 48 45 39 38 36 33 38 48 54 56 62 68 76 72
189 179 152 150 115 108 108 104 89 71 69 59 49 52 62 67 71 74 68 58 48 50 59 63 62 61 60 57 50 45 43 38 38 37 33 30 30 41 47 53 61 67 70
157 152 165 152 123 117 111 98 87 78 76 63 54 55 64 71 78 79 74 65 56 59 61 65 60 64 58 56 50 39 39 38 37 39 38 33 29 28 32 43 48 56 63
168 162 159 143 134 130 112 89 84 79 74 66 60 59 64 72 80 84 77 69 68 66 59 70 62 66 67 61 58 46 37 37 32 38 39 35 34 34 30 34 40 45 49
164 145 151 147 141 129 106 80 66 59 52 55 58 60 74 76 79 82 78 69 73 72 61 64 71 60 60 56 64 53 38 33 36 36 31 31 33 35 35 35 30 31 40
138 133 141 147 146 133 114 109 90 65 38 39 41 56 74 84 85 86 84 75 75 76 77 79 80 69 50 36 58 43 30 35 39 33 27 31 32 31 34 34 32 29 28
171 164 154 156 155 156 151 137 121 111 78 61 36 45 54 75 83 98 99 94 87 85 75 74 82 79 46 39 75 72 26 12 15 24 26 34 28 28 34 33 30 30 30
186 185 176 173 160 157 140 111 87 67 49 38 30 30 23 66 81 88 101 103 100 103 107 98 101 104 90 32 58 109 114 157 343 0 21 29 27 28 23 23 29 25 29
202 187 171 166 160 158 146 139 135 136 142 189 177 101 33 64 80 88 101 103 106 105 115 122 110 118 123 92 40 54 106 144 132 7 352 5 19 27 20 22 20 21 26
191 172 165 156 160 158 151 151 144 135 142 126 102 92 63 44 63 84 102 106 113 117 127 116 101 108 117 127 124 108 82 70 90 124 349 339 355 1 12 14 13 18 23
162 161 157 152 163 161 159 157 156 152 149 133 126 126 99 42 31 55 98 106 119 130 149 154 139 134 127 119 124 135 145 142 154 139 161 289 333 331 357 13 15 10 20